Other Surface Observations
Issued by NWS

Home | Current Version | Previous Version | Text Only | Print | Product List | Glossary On
Versions: 1 2 3 4 5 6 7 8 9 10 11 12 13 14 15 16 17 18 19 20 21 22 23 24 25 26 27 28 29 30 31 32 33 34 35 36 37 38 39 40 41 42 43 44 45 46 47 48 49 50
000
SXUS52 KTAE 041510
OSOTAE
OSOTAE
North Florida/South Alabama/Southwest Georgia Weather Roundup
National Weather Service Tallahassee Florida
1100 AM EDT MON MAY 04 2015

Note: "fair" indicates few or no clouds below 12,000 feet with no
significant weather and/or obstructions to visibility.

!FLZ017-115-028-034-025-041600
...North Florida...

CITY           SKY/WX    TMP DP  RH WIND       PRES   REMARKS
TALLAHASSEE    MOSUNNY   78  52  40 SE9       30.27R
APALACHICOLA   SUNNY     80  62  54 SE9       30.25R
PERRY          SUNNY     76  56  49 E5        30.28R
CROSS CITY       N/A     78  56  46 NE7       30.26R
JACKSONVILLE   PTSUNNY   75  62  64 E10       30.28R
$$

!FLZ112-006-005-002-011-041600
...Florida Panhandle...

CITY           SKY/WX    TMP DP  RH WIND       PRES   REMARKS
MARIANNA       SUNNY     76  61  59 E3        30.26S
BONIFAY        NOT AVBL
PANAMA CITY NW FAIR      78  60  53 SE8       30.24S
TYNDALL AFB    NOT AVBL
TYND DRONE APT NOT AVBL
DE FUNIAK SPR  FAIR      76  62  62 SE8       30.27S
EGLIN AFB      NOT AVBL
DESTIN         SUNNY     77  66  68 SE15G21   30.24R
HURLBURT       NOT AVBL
CRESTVIEW      SUNNY     79  62  56 SE10      30.27R
PENSACOLA      SUNNY     76  66  71 SE13G22   30.23R
$$

!ALZ063-066-041600
...South Alabama...

CITY           SKY/WX    TMP DP  RH WIND       PRES   REMARKS
DOTHAN           N/A    N/A N/A N/A MISG      30.31R
OZARK CAIRNS   NOT AVBL
FT RUCKER HELI SUNNY     76  60  57 VRB3      30.26S
RUCKER HELI 3  NOT AVBL
RUCKER HELI 2  FAIR      75  60  59 SE6       30.27S
FLORALA APT    SUNNY     75  61  61 S7        30.28R
ANDALUSIA      SUNNY     79  61  53 SE8       30.27R
TROY           SUNNY     77  58  51 E6        30.29R
EUFALA         FAIR      76  60  57 SW5       30.29R
MOBILE         MOSUNNY   76  63  64 E16       30.23R
$$

!GAZ120>161-041600
...Southwest and South Central Georgia...

CITY           SKY/WX    TMP DP  RH WIND       PRES   REMARKS
THOMASVILLE    FAIR      73  57  56 SE6       30.30R
BAINBRIDGE     SUNNY     79  61  53 CALM      30.28S
MOODY AFB      NOT AVBL
VALDOSTA       SUNNY     76  54  46 SE7       30.28S
MOULTRIE       SUNNY     73  55  53 CALM      30.30R
BLAKELY        SUNNY     77  61  57 CALM      30.29S
ALBANY         SUNNY     75  56  51 CALM      30.31S
TIFTON         FAIR      73  53  47 E5        30.29S
FITZGERALD     FAIR      76  52  43 CALM      30.33S
CORDELE        FAIR      75  53  46 S3        30.31S
AMERICUS       FAIR      73  55  53 CALM      30.33R
HOMERVILLE     FAIR      79  55  44 E6        30.29S
$$

!GMZ750-755-770-775-041600
...Coastal and Buoy Obs...

STATION/POSITION TIME  TEMP    WIND        PRES    VSBY  WAVE
                       AIR SEA DIR/SP/G                  HT/PER
                 (UTC) (F)     (DEG/KT/KT) (MB)    (MI)  (FT/S)
KEATON BEACH     1500   74     100/  6/  9 1025.0R
CEDAR KEY        1500   73     100/ 10/ 11 1024.8R
C TOWER          1500   73     130/ 13/ 14 1024.0R
APALACHICOLA BUO 1450   74 74  110/ 14/ 16 1023.4R         5/ 7
PANAMA CITY BUOY 1450   74 75  120/ 16/ 19 1023.2R         5/ 6
MOBILE BUOY      1450   75 75  100/ 19/ 21 1022.1R         4/ 6
ORANGE BCH AL BU 1450   74 75  100/ 16/ 17 1022.3R         4/ 7
$$



USA.gov is the U.S. government's official web portal to all federal, state and local government web resources and services.